Year,Month,Day,Hour,Minute,Value (Times are PST for windgust in km/hr)
2018,01,17,00,00,11.30
2018,01,17,00,01,11.30
2018,01,17,00,02,12.90
2018,01,17,00,03,9.60
2018,01,17,00,04,12.90
2018,01,17,00,05,9.60
2018,01,17,00,06,12.90
2018,01,17,00,07,9.60
2018,01,17,00,08,9.60
2018,01,17,00,09,9.60
2018,01,17,00,10,12.90
2018,01,17,00,11,9.60
2018,01,17,00,12,8.10
2018,01,17,00,13,11.30
2018,01,17,00,14,12.90
2018,01,17,00,15,4.80
2018,01,17,00,16,8.10
2018,01,17,00,17,9.60
2018,01,17,00,18,14.50
2018,01,17,00,19,12.90
2018,01,17,00,20,8.10
2018,01,17,00,21,11.30
2018,01,17,00,22,11.30
2018,01,17,00,23,12.90
2018,01,17,00,24,12.90
2018,01,17,00,25,14.50
2018,01,17,00,26,6.40
2018,01,17,00,27,9.60
2018,01,17,00,28,9.60
2018,01,17,00,29,4.80
2018,01,17,00,30,4.80
2018,01,17,00,31,6.40
2018,01,17,00,32,8.10
2018,01,17,00,33,12.90
2018,01,17,00,34,11.30
2018,01,17,00,35,4.80
2018,01,17,00,36,6.40
2018,01,17,00,37,8.10
2018,01,17,00,38,6.40
2018,01,17,00,39,12.90
2018,01,17,00,40,8.10
2018,01,17,00,41,6.40
2018,01,17,00,42,4.80
2018,01,17,00,43,6.40
2018,01,17,00,44,9.60
2018,01,17,00,45,6.40
2018,01,17,00,46,8.10
2018,01,17,00,47,8.10
2018,01,17,00,48,4.80
2018,01,17,00,49,9.60
2018,01,17,00,50,9.60
2018,01,17,00,51,3.20
2018,01,17,00,52,6.40
2018,01,17,00,53,6.40
2018,01,17,00,54,4.80
2018,01,17,00,55,9.60
2018,01,17,00,56,8.10
2018,01,17,00,57,9.60
2018,01,17,00,58,9.60
2018,01,17,00,59,19.30
2018,01,17,01,00,19.30
2018,01,17,01,01,6.40
2018,01,17,01,02,9.60
2018,01,17,01,03,12.90
2018,01,17,01,04,9.60
2018,01,17,01,05,12.90
2018,01,17,01,06,9.60
2018,01,17,01,07,8.10
2018,01,17,01,08,17.70
2018,01,17,01,09,9.60
2018,01,17,01,10,11.30
2018,01,17,01,11,8.10
2018,01,17,01,12,8.10
2018,01,17,01,13,11.30
2018,01,17,01,14,8.10
2018,01,17,01,15,8.10
2018,01,17,01,16,8.10
2018,01,17,01,17,12.90
2018,01,17,01,18,14.50
2018,01,17,01,19,12.90
2018,01,17,01,20,8.10
2018,01,17,01,21,9.60
2018,01,17,01,22,6.40
2018,01,17,01,23,9.60
2018,01,17,01,24,9.60
2018,01,17,01,25,12.90
2018,01,17,01,26,14.50
2018,01,17,01,27,14.50
2018,01,17,01,28,17.70
2018,01,17,01,29,17.70
2018,01,17,01,30,12.90
2018,01,17,01,31,11.30
2018,01,17,01,32,11.30
2018,01,17,01,33,9.60
2018,01,17,01,34,11.30
2018,01,17,01,35,6.40
2018,01,17,01,36,11.30
2018,01,17,01,37,6.40
2018,01,17,01,38,11.30
2018,01,17,01,39,14.50
2018,01,17,01,40,9.60
2018,01,17,01,41,9.60
2018,01,17,01,42,12.90
2018,01,17,01,43,11.30
2018,01,17,01,44,9.60
2018,01,17,01,45,14.50
2018,01,17,01,46,8.10
2018,01,17,01,47,8.10
2018,01,17,01,48,6.40
2018,01,17,01,49,4.80
2018,01,17,01,50,4.80
2018,01,17,01,51,3.20
2018,01,17,01,52,4.80
2018,01,17,01,53,4.80
2018,01,17,01,54,4.80
2018,01,17,01,55,4.80
2018,01,17,01,56,3.20
2018,01,17,01,57,3.20
2018,01,17,01,58,8.10
2018,01,17,01,59,4.80
2018,01,17,02,00,3.20
2018,01,17,02,01,3.20
2018,01,17,02,02,3.20
2018,01,17,02,03,3.20
2018,01,17,02,04,3.20
2018,01,17,02,05,3.20
2018,01,17,02,06,4.80
2018,01,17,02,07,11.30
2018,01,17,02,08,4.80
2018,01,17,02,09,4.80
2018,01,17,02,10,4.80
2018,01,17,02,11,4.80
2018,01,17,02,12,4.80
2018,01,17,02,13,3.20
2018,01,17,02,14,1.60
2018,01,17,02,15,3.20
2018,01,17,02,16,4.80
2018,01,17,02,17,6.40
2018,01,17,02,18,6.40
2018,01,17,02,19,4.80
2018,01,17,02,20,4.80
2018,01,17,02,21,4.80
2018,01,17,02,22,9.60
2018,01,17,02,23,8.10
2018,01,17,02,24,9.60
2018,01,17,02,25,6.40
2018,01,17,02,26,11.30
2018,01,17,02,27,12.90
2018,01,17,02,28,11.30
2018,01,17,02,29,12.90
2018,01,17,02,30,12.90
2018,01,17,02,31,9.60
2018,01,17,02,32,8.10
2018,01,17,02,33,6.40
2018,01,17,02,34,3.20
2018,01,17,02,35,4.80
2018,01,17,02,36,9.60
2018,01,17,02,37,8.10
2018,01,17,02,38,4.80
2018,01,17,02,39,6.40
2018,01,17,02,40,6.40
2018,01,17,02,41,3.20
2018,01,17,02,42,6.40
2018,01,17,02,43,6.40
2018,01,17,02,44,6.40
2018,01,17,02,45,3.20
2018,01,17,02,46,11.30
2018,01,17,02,47,6.40
2018,01,17,02,48,4.80
2018,01,17,02,49,3.20
2018,01,17,02,50,6.40
2018,01,17,02,51,6.40
2018,01,17,02,52,4.80
2018,01,17,02,53,3.20
2018,01,17,02,54,6.40
2018,01,17,02,55,6.40
2018,01,17,02,56,4.80
2018,01,17,02,57,3.20
2018,01,17,02,58,4.80
2018,01,17,02,59,4.80
2018,01,17,03,00,3.20
2018,01,17,03,01,3.20
2018,01,17,03,02,4.80
2018,01,17,03,03,6.40
2018,01,17,03,04,6.40
2018,01,17,03,05,8.10
2018,01,17,03,06,3.20
2018,01,17,03,07,3.20
2018,01,17,03,08,3.20
2018,01,17,03,09,3.20
2018,01,17,03,10,3.20
2018,01,17,03,11,3.20
2018,01,17,03,12,3.20
2018,01,17,03,13,1.60
2018,01,17,03,14,1.60
2018,01,17,03,15,1.60
2018,01,17,03,16,3.20
2018,01,17,03,17,1.60
2018,01,17,03,18,3.20
2018,01,17,03,19,3.20
2018,01,17,03,20,4.80
2018,01,17,03,21,3.20
2018,01,17,03,22,9.60
2018,01,17,03,23,6.40
2018,01,17,03,24,11.30
2018,01,17,03,25,11.30
2018,01,17,03,26,9.60
2018,01,17,03,27,12.90
2018,01,17,03,28,8.10
2018,01,17,03,29,12.90
2018,01,17,03,30,11.30
2018,01,17,03,31,16.10
2018,01,17,03,32,6.40
2018,01,17,03,33,11.30
2018,01,17,03,34,11.30
2018,01,17,03,35,19.30
2018,01,17,03,36,11.30
2018,01,17,03,37,12.90
2018,01,17,03,38,9.60
2018,01,17,03,39,9.60
2018,01,17,03,40,14.50
2018,01,17,03,41,14.50
2018,01,17,03,42,9.60
2018,01,17,03,43,9.60
2018,01,17,03,44,9.60
2018,01,17,03,45,9.60
2018,01,17,03,46,11.30
2018,01,17,03,47,12.90
2018,01,17,03,48,12.90
2018,01,17,03,49,14.50
2018,01,17,03,50,8.10
2018,01,17,03,51,6.40
2018,01,17,03,52,4.80
2018,01,17,03,53,6.40
2018,01,17,03,54,6.40
2018,01,17,03,55,9.60
2018,01,17,03,56,12.90
2018,01,17,03,57,6.40
2018,01,17,03,58,11.30
2018,01,17,03,59,4.80
2018,01,17,04,00,11.30
2018,01,17,04,01,12.90
2018,01,17,04,02,6.40
2018,01,17,04,03,8.10
2018,01,17,04,04,6.40
2018,01,17,04,05,3.20
2018,01,17,04,06,6.40
2018,01,17,04,07,11.30
2018,01,17,04,08,14.50
2018,01,17,04,09,6.40
2018,01,17,04,10,9.60
2018,01,17,04,11,12.90
2018,01,17,04,12,12.90
2018,01,17,04,13,14.50
2018,01,17,04,14,11.30
2018,01,17,04,15,17.70
2018,01,17,04,16,14.50
2018,01,17,04,17,9.60
2018,01,17,04,18,12.90
2018,01,17,04,19,11.30
2018,01,17,04,20,6.40
2018,01,17,04,21,14.50
2018,01,17,04,22,11.30
2018,01,17,04,23,17.70
2018,01,17,04,24,25.70
2018,01,17,04,25,17.70
2018,01,17,04,26,14.50
2018,01,17,04,27,12.90
2018,01,17,04,28,14.50
2018,01,17,04,29,22.50
2018,01,17,04,30,19.30
2018,01,17,04,31,8.10
2018,01,17,04,32,11.30
2018,01,17,04,33,11.30
2018,01,17,04,34,9.60
2018,01,17,04,35,11.30
2018,01,17,04,36,14.50
2018,01,17,04,37,12.90
2018,01,17,04,38,11.30
2018,01,17,04,39,16.10
2018,01,17,04,40,14.50
2018,01,17,04,41,14.50
2018,01,17,04,42,22.50
2018,01,17,04,43,22.50
2018,01,17,04,44,16.10
2018,01,17,04,45,14.50
2018,01,17,04,46,9.60
2018,01,17,04,47,19.30
2018,01,17,04,48,11.30
2018,01,17,04,49,12.90
2018,01,17,04,50,19.30
2018,01,17,04,51,20.90
2018,01,17,04,52,11.30
2018,01,17,04,53,19.30
2018,01,17,04,54,22.50
2018,01,17,04,55,12.90
2018,01,17,04,56,14.50
2018,01,17,04,57,9.60
2018,01,17,04,58,12.90
2018,01,17,04,59,14.50
2018,01,17,05,00,17.70
2018,01,17,05,01,14.50
2018,01,17,05,02,6.40
2018,01,17,05,03,6.40
2018,01,17,05,04,9.60
2018,01,17,05,05,8.10
2018,01,17,05,06,9.60
2018,01,17,05,07,12.90
2018,01,17,05,08,12.90
2018,01,17,05,09,9.60
2018,01,17,05,10,12.90
2018,01,17,05,11,12.90
2018,01,17,05,12,9.60
2018,01,17,05,13,12.90
2018,01,17,05,14,12.90
2018,01,17,05,15,19.30
2018,01,17,05,16,12.90
2018,01,17,05,17,16.10
2018,01,17,05,18,9.60
2018,01,17,05,19,6.40
2018,01,17,05,20,20.90
2018,01,17,05,21,12.90
2018,01,17,05,22,8.10
2018,01,17,05,23,12.90
2018,01,17,05,24,6.40
2018,01,17,05,25,12.90
2018,01,17,05,26,12.90
2018,01,17,05,27,9.60
2018,01,17,05,28,9.60
2018,01,17,05,29,11.30
2018,01,17,05,30,6.40
2018,01,17,05,31,11.30
2018,01,17,05,32,17.70
2018,01,17,05,33,11.30
2018,01,17,05,34,17.70
2018,01,17,05,35,14.50
2018,01,17,05,36,17.70
2018,01,17,05,37,12.90
2018,01,17,05,38,25.70
2018,01,17,05,39,14.50
2018,01,17,05,40,12.90
2018,01,17,05,41,19.30
2018,01,17,05,42,16.10
2018,01,17,05,43,11.30
2018,01,17,05,44,14.50
2018,01,17,05,45,14.50
2018,01,17,05,46,16.10
2018,01,17,05,47,11.30
2018,01,17,05,48,12.90
2018,01,17,05,49,17.70
2018,01,17,05,50,12.90
2018,01,17,05,51,16.10
2018,01,17,05,52,9.60
2018,01,17,05,53,12.90
2018,01,17,05,54,6.40
2018,01,17,05,55,16.10
2018,01,17,05,56,16.10
2018,01,17,05,57,19.30
2018,01,17,05,58,14.50
2018,01,17,05,59,17.70
2018,01,17,06,00,17.70
2018,01,17,06,01,12.90
2018,01,17,06,02,11.30
2018,01,17,06,03,14.50
2018,01,17,06,04,17.70
2018,01,17,06,05,16.10
2018,01,17,06,06,11.30
2018,01,17,06,07,14.50
2018,01,17,06,08,17.70
2018,01,17,06,09,9.60
2018,01,17,06,10,11.30
2018,01,17,06,11,19.30
2018,01,17,06,12,14.50
2018,01,17,06,13,17.70
2018,01,17,06,14,12.90
2018,01,17,06,15,12.90
2018,01,17,06,16,12.90
2018,01,17,06,17,14.50
2018,01,17,06,18,16.10
2018,01,17,06,19,11.30
2018,01,17,06,20,8.10
2018,01,17,06,21,30.60
2018,01,17,06,22,12.90
2018,01,17,06,23,4.80
2018,01,17,06,24,6.40
2018,01,17,06,25,19.30
2018,01,17,06,26,14.50
2018,01,17,06,27,11.30
2018,01,17,06,28,9.60
2018,01,17,06,29,24.20
2018,01,17,06,30,16.10
2018,01,17,06,31,9.60
2018,01,17,06,32,11.30
2018,01,17,06,33,9.60
2018,01,17,06,34,14.50
2018,01,17,06,35,11.30
2018,01,17,06,36,12.90
2018,01,17,06,37,16.10
2018,01,17,06,38,11.30
2018,01,17,06,39,16.10
2018,01,17,06,40,19.30
2018,01,17,06,41,11.30
2018,01,17,06,42,22.50
2018,01,17,06,43,17.70
2018,01,17,06,44,9.60
2018,01,17,06,45,9.60
2018,01,17,06,46,14.50
2018,01,17,06,47,11.30
2018,01,17,06,48,14.50
2018,01,17,06,49,14.50
2018,01,17,06,50,14.50
2018,01,17,06,51,6.40
2018,01,17,06,52,8.10
2018,01,17,06,53,9.60
2018,01,17,06,54,11.30
2018,01,17,06,55,12.90
2018,01,17,06,56,6.40
2018,01,17,06,57,6.40
2018,01,17,06,58,14.50
2018,01,17,06,59,14.50
2018,01,17,07,00,12.90
2018,01,17,07,01,11.30
2018,01,17,07,02,9.60
2018,01,17,07,03,16.10
2018,01,17,07,04,12.90
2018,01,17,07,05,11.30
2018,01,17,07,06,11.30
2018,01,17,07,07,6.40
2018,01,17,07,08,8.10
2018,01,17,07,09,20.90
2018,01,17,07,10,19.30
2018,01,17,07,11,12.90
2018,01,17,07,12,11.30
2018,01,17,07,13,8.10
2018,01,17,07,14,4.80
2018,01,17,07,15,14.50
2018,01,17,07,16,20.90
2018,01,17,07,17,12.90
2018,01,17,07,18,16.10
2018,01,17,07,19,12.90
2018,01,17,07,20,11.30
2018,01,17,07,21,19.30
2018,01,17,07,22,16.10
2018,01,17,07,23,14.50
2018,01,17,07,24,14.50
2018,01,17,07,25,11.30
2018,01,17,07,26,14.50
2018,01,17,07,27,12.90
2018,01,17,07,28,12.90
2018,01,17,07,29,24.20
2018,01,17,07,30,11.30
2018,01,17,07,31,27.40
2018,01,17,07,32,17.70
2018,01,17,07,33,19.30
2018,01,17,07,34,14.50
2018,01,17,07,35,22.50
2018,01,17,07,36,14.50
2018,01,17,07,37,16.10
2018,01,17,07,38,19.30
2018,01,17,07,39,22.50
2018,01,17,07,40,20.90
2018,01,17,07,41,14.50
2018,01,17,07,42,22.50
2018,01,17,07,43,19.30
2018,01,17,07,44,32.20
2018,01,17,07,45,25.70
2018,01,17,07,46,14.50
2018,01,17,07,47,16.10
2018,01,17,07,48,20.90
2018,01,17,07,49,19.30
2018,01,17,07,50,19.30
2018,01,17,07,51,12.90
2018,01,17,07,52,25.70
2018,01,17,07,53,32.20
2018,01,17,07,54,19.30
2018,01,17,07,55,35.40
2018,01,17,07,56,27.40
2018,01,17,07,57,27.40
2018,01,17,07,58,35.40
2018,01,17,07,59,25.70
2018,01,17,08,00,30.60
2018,01,17,08,01,17.70
2018,01,17,08,02,24.20
2018,01,17,08,03,22.50
2018,01,17,08,04,25.70
2018,01,17,08,05,25.70
2018,01,17,08,06,30.60
2018,01,17,08,07,16.10
2018,01,17,08,08,33.80
2018,01,17,08,09,20.90
2018,01,17,08,10,25.70
2018,01,17,08,11,24.20
2018,01,17,08,12,14.50
2018,01,17,08,13,12.90
2018,01,17,08,14,27.40
2018,01,17,08,15,24.20
2018,01,17,08,16,17.70
2018,01,17,08,17,19.30
2018,01,17,08,18,17.70
2018,01,17,08,19,24.20
2018,01,17,08,20,20.90
2018,01,17,08,21,20.90
2018,01,17,08,22,22.50
2018,01,17,08,23,22.50
2018,01,17,08,24,14.50
2018,01,17,08,25,17.70
2018,01,17,08,26,19.30
2018,01,17,08,27,24.20
2018,01,17,08,28,17.70
2018,01,17,08,29,25.70
2018,01,17,08,30,24.20
2018,01,17,08,31,20.90
2018,01,17,08,32,24.20
2018,01,17,08,33,20.90
2018,01,17,08,34,16.10
2018,01,17,08,35,16.10
2018,01,17,08,36,17.70
2018,01,17,08,37,19.30
2018,01,17,08,38,29.00
2018,01,17,08,39,24.20
2018,01,17,08,40,30.60
2018,01,17,08,41,22.50
2018,01,17,08,42,17.70
2018,01,17,08,43,20.90
2018,01,17,08,44,12.90
2018,01,17,08,45,14.50
2018,01,17,08,46,35.40
2018,01,17,08,47,19.30
2018,01,17,08,48,24.20
2018,01,17,08,49,20.90
2018,01,17,08,50,16.10
2018,01,17,08,51,20.90
2018,01,17,08,52,19.30
2018,01,17,08,53,35.40
2018,01,17,08,54,24.20
2018,01,17,08,55,12.90
2018,01,17,08,56,19.30
2018,01,17,08,57,20.90
2018,01,17,08,58,24.20
2018,01,17,08,59,24.20
2018,01,17,09,00,14.50
2018,01,17,09,01,27.40
2018,01,17,09,02,22.50
2018,01,17,09,03,19.30
2018,01,17,09,04,25.70
2018,01,17,09,05,29.00
2018,01,17,09,06,24.20
2018,01,17,09,07,38.60
2018,01,17,09,08,32.20
2018,01,17,09,09,25.70
2018,01,17,09,10,25.70
2018,01,17,09,11,25.70
2018,01,17,09,12,30.60
2018,01,17,09,13,35.40
2018,01,17,09,14,27.40
2018,01,17,09,15,30.60
2018,01,17,09,16,19.30
2018,01,17,09,17,20.90
2018,01,17,09,18,29.00
2018,01,17,09,19,33.80
2018,01,17,09,20,19.30
2018,01,17,09,21,30.60
2018,01,17,09,22,41.80
2018,01,17,09,23,33.80
2018,01,17,09,24,24.20
2018,01,17,09,25,22.50
2018,01,17,09,26,30.60
2018,01,17,09,27,40.20
2018,01,17,09,28,30.60
2018,01,17,09,29,38.60
2018,01,17,09,30,25.70
2018,01,17,09,31,29.00
2018,01,17,09,32,51.50
2018,01,17,09,33,19.30
2018,01,17,09,34,24.20
2018,01,17,09,35,40.20
2018,01,17,09,36,40.20
2018,01,17,09,37,51.50
2018,01,17,09,38,24.20
2018,01,17,09,39,51.50
2018,01,17,09,40,25.70
2018,01,17,09,41,14.50
2018,01,17,09,42,30.60
2018,01,17,09,43,27.40
2018,01,17,09,44,19.30
2018,01,17,09,45,24.20
2018,01,17,09,46,29.00
2018,01,17,09,47,22.50
2018,01,17,09,48,22.50
2018,01,17,09,49,51.50
2018,01,17,09,50,29.00
2018,01,17,09,51,49.90
2018,01,17,09,52,22.50
2018,01,17,09,53,38.60
2018,01,17,09,54,24.20
2018,01,17,09,55,29.00
2018,01,17,09,56,43.50
2018,01,17,09,57,43.50
2018,01,17,09,58,30.60
2018,01,17,09,59,54.70
2018,01,17,10,00,49.90
2018,01,17,10,01,32.20
2018,01,17,10,02,40.20
2018,01,17,10,03,40.20
2018,01,17,10,04,32.20
2018,01,17,10,05,33.80
2018,01,17,10,06,19.30
2018,01,17,10,07,38.60
2018,01,17,10,08,35.40
2018,01,17,10,09,25.70
2018,01,17,10,10,27.40
2018,01,17,10,11,32.20
2018,01,17,10,12,32.20
2018,01,17,10,13,41.80
2018,01,17,10,14,27.40
2018,01,17,10,15,46.70
2018,01,17,10,16,48.30
2018,01,17,10,17,27.40
2018,01,17,10,18,24.20
2018,01,17,10,19,20.90
2018,01,17,10,20,30.60
2018,01,17,10,21,32.20
2018,01,17,10,22,43.50
2018,01,17,10,23,43.50
2018,01,17,10,24,38.60
2018,01,17,10,25,20.90
2018,01,17,10,26,33.80
2018,01,17,10,27,27.40
2018,01,17,10,28,45.10
2018,01,17,10,29,46.70
2018,01,17,10,30,32.20
2018,01,17,10,31,30.60
2018,01,17,10,32,30.60
2018,01,17,10,33,33.80
2018,01,17,10,34,45.10
2018,01,17,10,35,45.10
2018,01,17,10,36,35.40
2018,01,17,10,37,38.60
2018,01,17,10,38,40.20
2018,01,17,10,39,38.60
2018,01,17,10,40,29.00
2018,01,17,10,41,24.20
2018,01,17,10,42,46.70
2018,01,17,10,43,37.00
2018,01,17,10,44,30.60
2018,01,17,10,45,38.60
2018,01,17,10,46,33.80
2018,01,17,10,47,46.70
2018,01,17,10,48,30.60
2018,01,17,10,49,32.20
2018,01,17,10,50,30.60
2018,01,17,10,51,25.70
2018,01,17,10,52,38.60
2018,01,17,10,53,43.50
2018,01,17,10,54,41.80
2018,01,17,10,55,29.00
2018,01,17,10,56,40.20
2018,01,17,10,57,35.40
2018,01,17,10,58,33.80
2018,01,17,10,59,33.80
2018,01,17,11,00,30.60
2018,01,17,11,01,27.40
2018,01,17,11,02,24.20
2018,01,17,11,03,33.80
2018,01,17,11,04,38.60
2018,01,17,11,05,35.40
2018,01,17,11,06,29.00
2018,01,17,11,07,33.80
2018,01,17,11,08,29.00
2018,01,17,11,09,30.60
2018,01,17,11,10,32.20
2018,01,17,11,11,32.20
2018,01,17,11,12,29.00
2018,01,17,11,13,27.40
2018,01,17,11,14,48.30
2018,01,17,11,15,43.50
2018,01,17,11,16,45.10
2018,01,17,11,17,32.20
2018,01,17,11,18,29.00
2018,01,17,11,19,22.50
2018,01,17,11,20,19.30
2018,01,17,11,21,43.50
2018,01,17,11,22,25.70
2018,01,17,11,23,41.80
2018,01,17,11,24,33.80
2018,01,17,11,25,17.70
2018,01,17,11,26,24.20
2018,01,17,11,27,37.00
2018,01,17,11,28,45.10
2018,01,17,11,29,29.00
2018,01,17,11,30,38.60
2018,01,17,11,31,22.50
2018,01,17,11,32,19.30
2018,01,17,11,33,27.40
2018,01,17,11,34,33.80
2018,01,17,11,35,24.20
2018,01,17,11,36,27.40
2018,01,17,11,37,25.70
2018,01,17,11,38,19.30
2018,01,17,11,39,40.20
2018,01,17,11,40,22.50
2018,01,17,11,41,43.50
2018,01,17,11,42,30.60
2018,01,17,11,43,27.40
2018,01,17,11,44,30.60
2018,01,17,11,45,20.90
2018,01,17,11,46,20.90
2018,01,17,11,47,25.70
2018,01,17,11,48,25.70
2018,01,17,11,49,22.50
2018,01,17,11,50,20.90
2018,01,17,11,51,29.00
2018,01,17,11,52,30.60
2018,01,17,11,53,25.70
2018,01,17,11,54,27.40
2018,01,17,11,55,20.90
2018,01,17,11,56,37.00
2018,01,17,11,57,41.80
2018,01,17,11,58,27.40
2018,01,17,11,59,29.00
2018,01,17,12,00,22.50
2018,01,17,12,01,29.00
2018,01,17,12,02,30.60
2018,01,17,12,03,19.30
2018,01,17,12,04,32.20
2018,01,17,12,05,24.20
2018,01,17,12,06,32.20
2018,01,17,12,07,33.80
2018,01,17,12,08,40.20
2018,01,17,12,09,30.60
2018,01,17,12,10,24.20
2018,01,17,12,11,32.20
2018,01,17,12,12,27.40
2018,01,17,12,13,30.60
2018,01,17,12,14,17.70
2018,01,17,12,15,38.60
2018,01,17,12,16,35.40
2018,01,17,12,17,33.80
2018,01,17,12,18,35.40
2018,01,17,12,19,49.90
2018,01,17,12,20,43.50
2018,01,17,12,21,37.00
2018,01,17,12,22,35.40
2018,01,17,12,23,48.30
2018,01,17,12,24,46.70
2018,01,17,12,25,37.00
2018,01,17,12,26,46.70
2018,01,17,12,27,29.00
2018,01,17,12,28,30.60
2018,01,17,12,29,38.60
2018,01,17,12,30,24.20
2018,01,17,12,31,37.00
2018,01,17,12,32,33.80
2018,01,17,12,33,30.60
2018,01,17,12,34,29.00
2018,01,17,12,35,35.40
2018,01,17,12,36,20.90
2018,01,17,12,37,35.40
2018,01,17,12,38,24.20
2018,01,17,12,39,19.30
2018,01,17,12,40,30.60
2018,01,17,12,41,38.60
2018,01,17,12,42,35.40
2018,01,17,12,43,38.60
2018,01,17,12,44,32.20
2018,01,17,12,45,30.60
2018,01,17,12,46,37.00
2018,01,17,12,47,32.20
2018,01,17,12,48,37.00
2018,01,17,12,49,29.00
2018,01,17,12,50,24.20
2018,01,17,12,51,25.70
2018,01,17,12,52,33.80
2018,01,17,12,53,38.60
2018,01,17,12,54,32.20
2018,01,17,12,55,19.30
2018,01,17,12,56,41.80
2018,01,17,12,57,43.50
2018,01,17,12,58,20.90
2018,01,17,12,59,22.50
2018,01,17,13,00,30.60
2018,01,17,13,01,30.60
2018,01,17,13,02,27.40
2018,01,17,13,03,19.30
2018,01,17,13,04,25.70
2018,01,17,13,05,25.70
2018,01,17,13,06,22.50
2018,01,17,13,07,20.90
2018,01,17,13,08,20.90
2018,01,17,13,09,25.70
2018,01,17,13,10,27.40
2018,01,17,13,11,20.90
2018,01,17,13,12,46.70
2018,01,17,13,13,30.60
2018,01,17,13,14,25.70
2018,01,17,13,15,27.40
2018,01,17,13,16,27.40
2018,01,17,13,17,40.20
2018,01,17,13,18,40.20
2018,01,17,13,19,37.00
2018,01,17,13,20,40.20
2018,01,17,13,21,35.40
2018,01,17,13,22,20.90
2018,01,17,13,23,41.80
2018,01,17,13,24,43.50
2018,01,17,13,25,27.40
2018,01,17,13,26,29.00
2018,01,17,13,27,35.40
2018,01,17,13,28,24.20
2018,01,17,13,29,22.50
2018,01,17,13,30,40.20
2018,01,17,13,31,27.40
2018,01,17,13,32,40.20
2018,01,17,13,33,32.20
2018,01,17,13,34,27.40
2018,01,17,13,35,37.00
2018,01,17,13,36,25.70
2018,01,17,13,37,43.50
2018,01,17,13,38,37.00
2018,01,17,13,39,41.80
2018,01,17,13,40,37.00
2018,01,17,13,41,56.30
2018,01,17,13,42,30.60
2018,01,17,13,43,33.80
2018,01,17,13,44,48.30
2018,01,17,13,45,30.60
2018,01,17,13,46,35.40
2018,01,17,13,47,49.90
2018,01,17,13,48,33.80
2018,01,17,13,49,37.00
2018,01,17,13,50,35.40
2018,01,17,13,51,32.20
2018,01,17,13,52,35.40
2018,01,17,13,53,25.70
2018,01,17,13,54,29.00
2018,01,17,13,55,33.80
2018,01,17,13,56,32.20
2018,01,17,13,57,22.50
2018,01,17,13,58,27.40
2018,01,17,13,59,30.60
2018,01,17,14,00,20.90
2018,01,17,14,01,30.60
2018,01,17,14,02,22.50
2018,01,17,14,03,29.00
2018,01,17,14,04,35.40
2018,01,17,14,05,32.20
2018,01,17,14,06,24.20
2018,01,17,14,07,32.20
2018,01,17,14,08,25.70
2018,01,17,14,09,37.00
2018,01,17,14,10,29.00
2018,01,17,14,11,40.20
2018,01,17,14,12,33.80
2018,01,17,14,13,33.80
2018,01,17,14,14,29.00
2018,01,17,14,15,35.40
2018,01,17,14,16,35.40
2018,01,17,14,17,32.20
2018,01,17,14,18,29.00
2018,01,17,14,19,29.00
2018,01,17,14,20,22.50
2018,01,17,14,21,43.50
2018,01,17,14,22,49.90
2018,01,17,14,23,30.60
2018,01,17,14,24,41.80
2018,01,17,14,25,29.00
2018,01,17,14,26,25.70
2018,01,17,14,27,24.20
2018,01,17,14,28,32.20
2018,01,17,14,29,24.20
2018,01,17,14,30,16.10
2018,01,17,14,31,30.60
2018,01,17,14,32,30.60
2018,01,17,14,33,32.20
2018,01,17,14,34,40.20
2018,01,17,14,35,29.00
2018,01,17,14,36,30.60
2018,01,17,14,37,25.70
2018,01,17,14,38,24.20
2018,01,17,14,39,33.80
2018,01,17,14,40,19.30
2018,01,17,14,41,30.60
2018,01,17,14,42,38.60
2018,01,17,14,43,32.20
2018,01,17,14,44,38.60
2018,01,17,14,45,40.20
2018,01,17,14,46,30.60
2018,01,17,14,47,43.50
2018,01,17,14,48,27.40
2018,01,17,14,49,43.50
2018,01,17,14,50,33.80
2018,01,17,14,51,43.50
2018,01,17,14,52,41.80
2018,01,17,14,53,35.40
2018,01,17,14,54,25.70
2018,01,17,14,55,33.80
2018,01,17,14,56,30.60
2018,01,17,14,57,27.40
2018,01,17,14,58,38.60
2018,01,17,14,59,37.00
2018,01,17,15,00,24.20
2018,01,17,15,01,25.70
2018,01,17,15,02,33.80
2018,01,17,15,03,19.30
2018,01,17,15,04,27.40
2018,01,17,15,05,25.70
2018,01,17,15,06,22.50
2018,01,17,15,07,16.10
2018,01,17,15,08,24.20
2018,01,17,15,09,35.40
2018,01,17,15,10,40.20
2018,01,17,15,11,27.40
2018,01,17,15,12,43.50
2018,01,17,15,13,35.40
2018,01,17,15,14,20.90
2018,01,17,15,15,49.90
2018,01,17,15,16,38.60
2018,01,17,15,17,35.40
2018,01,17,15,18,38.60
2018,01,17,15,19,29.00
2018,01,17,15,20,40.20
2018,01,17,15,21,29.00
2018,01,17,15,22,19.30
2018,01,17,15,23,40.20
2018,01,17,15,24,29.00
2018,01,17,15,25,37.00
2018,01,17,15,26,38.60
2018,01,17,15,27,22.50
2018,01,17,15,28,32.20
2018,01,17,15,29,49.90
2018,01,17,15,30,27.40
2018,01,17,15,31,32.20
2018,01,17,15,32,30.60
2018,01,17,15,33,32.20
2018,01,17,15,34,22.50
2018,01,17,15,35,32.20
2018,01,17,15,36,27.40
2018,01,17,15,37,27.40
2018,01,17,15,38,27.40
2018,01,17,15,39,35.40
2018,01,17,15,40,45.10
2018,01,17,15,41,24.20
2018,01,17,15,42,25.70
2018,01,17,15,43,22.50
2018,01,17,15,44,25.70
2018,01,17,15,45,25.70
2018,01,17,15,46,45.10
2018,01,17,15,47,30.60
2018,01,17,15,48,22.50
2018,01,17,15,49,20.90
2018,01,17,15,50,38.60
2018,01,17,15,51,37.00
2018,01,17,15,52,33.80
2018,01,17,15,53,30.60
2018,01,17,15,54,27.40
2018,01,17,15,55,32.20
2018,01,17,15,56,29.00
2018,01,17,15,57,22.50
2018,01,17,15,58,30.60
2018,01,17,15,59,32.20
2018,01,17,16,00,30.60
2018,01,17,16,01,30.60
2018,01,17,16,02,29.00
2018,01,17,16,03,32.20
2018,01,17,16,04,24.20
2018,01,17,16,05,24.20
2018,01,17,16,06,27.40
2018,01,17,16,07,27.40
2018,01,17,16,08,22.50
2018,01,17,16,09,29.00
2018,01,17,16,10,32.20
2018,01,17,16,11,48.30
2018,01,17,16,12,40.20
2018,01,17,16,13,30.60
2018,01,17,16,14,51.50
2018,01,17,16,15,32.20
2018,01,17,16,16,37.00
2018,01,17,16,17,41.80
2018,01,17,16,18,33.80
2018,01,17,16,19,27.40
2018,01,17,16,20,37.00
2018,01,17,16,21,32.20
2018,01,17,16,22,32.20
2018,01,17,16,23,27.40
2018,01,17,16,24,35.40
2018,01,17,16,25,25.70
2018,01,17,16,26,29.00
2018,01,17,16,27,20.90
2018,01,17,16,28,33.80
2018,01,17,16,29,20.90
2018,01,17,16,30,32.20
2018,01,17,16,31,30.60
2018,01,17,16,32,35.40
2018,01,17,16,33,24.20
2018,01,17,16,34,27.40
2018,01,17,16,35,27.40
2018,01,17,16,36,29.00
2018,01,17,16,37,37.00
2018,01,17,16,38,33.80
2018,01,17,16,39,29.00
2018,01,17,16,40,24.20
2018,01,17,16,41,32.20
2018,01,17,16,42,25.70
2018,01,17,16,43,22.50
2018,01,17,16,44,22.50
2018,01,17,16,45,17.70
2018,01,17,16,46,29.00
2018,01,17,16,47,27.40
2018,01,17,16,48,25.70
2018,01,17,16,49,25.70
2018,01,17,16,50,30.60
2018,01,17,16,51,33.80
2018,01,17,16,52,32.20
2018,01,17,16,53,20.90
2018,01,17,16,54,27.40
2018,01,17,16,55,27.40
2018,01,17,16,56,24.20
2018,01,17,16,57,22.50
2018,01,17,16,58,22.50
2018,01,17,16,59,20.90
2018,01,17,17,00,20.90
2018,01,17,17,01,25.70
2018,01,17,17,02,22.50
2018,01,17,17,03,24.20
2018,01,17,17,04,19.30
2018,01,17,17,05,24.20
2018,01,17,17,06,22.50
2018,01,17,17,07,19.30
2018,01,17,17,08,22.50
2018,01,17,17,09,29.00
2018,01,17,17,10,17.70
2018,01,17,17,11,32.20
2018,01,17,17,12,17.70
2018,01,17,17,13,29.00
2018,01,17,17,14,24.20
2018,01,17,17,15,16.10
2018,01,17,17,16,17.70
2018,01,17,17,17,25.70
2018,01,17,17,18,24.20
2018,01,17,17,19,30.60
2018,01,17,17,20,32.20
2018,01,17,17,21,27.40
2018,01,17,17,22,27.40
2018,01,17,17,23,24.20
2018,01,17,17,24,25.70
2018,01,17,17,25,22.50
2018,01,17,17,26,29.00
2018,01,17,17,27,38.60
2018,01,17,17,28,24.20